INTELSAT 18 (IS-18)     
1 37834U 11056A   19261.80899368  .00000050  00000-0  00000+0 0  9992
2 37834   0.0196 192.0109 0002583 344.6447 292.0140  1.00272989 29158
SL-23 R/B               
1 37835U 11056B   19260.39220265  .00000040  00000-0  00000-0 0  9990
2 37835  18.8950 302.0442 5690771   7.2772 358.5265  1.96796317 57144